Date String (YYYY-MM-DD hh:mm:ss) UTC,Instrument flags,absolute air pressure of the measurement (hPa),sample flow rate (lpm),inlet stack bypass flow (lpm),air temperature of the measurement (°C),ambient temperature measured by the external sensor (°C),aerosol sample conditioner tube jacket temperature (°C),OPC LED temperature (°C),internal box temperature (°C),relative humidity of the measurement (%),span deviation,mass concentration of particles derived from Lorenz-Mie calculation of OPC scattering (μg/m³),mass concentration of particles derived from Lorenz-Mie calculation of OPC scattering (μg/m³),mass concentration of particles derived from Lorenz-Mie calculation of OPC scattering (μg/m³)
DateTimeUTC,F1_M11,P_M11,Q1_M11,Q2_M11,T1_M11,T2_M11,T3_M11,T4_M11,T5_M11,U1_M11,ZSPAN_M11,X2_M11,X0_M11,X1_M11
2024-01-10 22:00:00,SystemResetWarning,0811.4,4.99,000.00,019.1,018.6,000.0,027.3,020.2,6.4,0000.0,0001.27,0003.72,0000.64
2024-01-10 22:01:00,SystemResetWarning,0811.4,5.01,000.00,019.0,018.4,000.0,027.3,020.0,6.5,0000.0,0001.31,0003.76,0000.65
2024-01-10 22:02:00,SystemResetWarning,0811.3,5.01,000.00,018.9,018.1,000.0,027.3,020.0,6.5,0000.0,0001.29,0003.66,0000.64
2024-01-10 22:03:00,SystemResetWarning,0811.4,5.00,000.00,018.9,018.0,000.0,027.3,020.0,6.6,0000.0,0001.32,0003.74,0000.63
2024-01-10 22:04:00,SystemResetWarning,0811.5,4.99,000.00,018.8,017.8,000.0,027.3,020.0,6.6,0000.0,0001.33,0003.90,0000.63
2024-01-10 22:05:00,SystemResetWarning,0811.5,5.01,000.00,018.8,017.7,000.0,027.3,020.0,6.6,0000.0,0001.30,0003.73,0000.61
2024-01-10 22:06:00,SystemResetWarning,0811.6,5.01,000.00,018.9,018.0,000.0,027.3,020.4,6.6,0000.0,0001.27,0003.94,0000.60
2024-01-10 22:07:00,SystemResetWarning,0811.6,5.00,000.00,019.0,018.9,000.0,027.3,020.8,6.6,0000.0,0001.21,0003.83,0000.59
2024-01-10 22:08:00,SystemResetWarning,0811.6,5.00,000.00,019.1,019.1,000.0,027.3,020.7,6.6,0000.0,0001.21,0004.54,0000.58
2024-01-10 22:09:00,SystemResetWarning,0811.6,4.99,000.00,019.0,018.9,000.0,027.3,020.2,6.6,0000.0,0001.16,0004.42,0000.57
2024-01-10 22:10:00,SystemResetWarning,0811.6,4.99,000.00,019.0,018.6,000.0,027.3,020.1,6.6,0000.0,0001.08,0003.90,0000.56
2024-01-10 22:11:00,SystemResetWarning,0811.6,5.00,000.00,018.9,018.3,000.0,027.3,020.0,6.6,0000.0,0001.03,0003.75,0000.54
2024-01-10 22:12:00,SystemResetWarning,0811.6,5.01,000.00,018.8,018.1,000.0,027.3,020.0,6.7,0000.0,0001.03,0003.90,0000.53
2024-01-10 22:13:00,SystemResetWarning,0811.7,5.00,000.00,018.8,017.9,000.0,027.3,020.0,6.7,0000.0,0001.08,0004.98,0000.53
2024-01-10 22:14:00,SystemResetWarning,0811.7,4.99,000.00,018.8,017.7,000.0,027.3,020.0,6.8,0000.0,0001.10,0005.13,0000.53
2024-01-10 22:15:00,SystemResetWarning,0811.8,5.00,000.00,018.8,017.7,000.0,027.3,020.1,6.7,0000.0,0001.10,0005.04,0000.53
2024-01-10 22:16:00,SystemResetWarning,0811.8,5.01,000.00,018.9,018.4,000.0,027.3,020.6,6.8,0000.0,0001.11,0005.07,0000.53
2024-01-10 22:17:00,SystemResetWarning,0811.8,5.00,000.00,019.0,019.2,000.0,027.3,020.9,6.7,0000.0,0001.16,0005.01,0000.53
2024-01-10 22:18:00,SystemResetWarning,0811.8,4.98,000.00,019.1,019.2,000.0,027.3,020.5,6.7,0000.0,0001.16,0005.44,0000.52
2024-01-10 22:19:00,SystemResetWarning,0811.9,5.00,000.00,019.0,018.9,000.0,027.3,020.2,6.7,0000.0,0001.17,0005.10,0000.51
2024-01-10 22:20:00,SystemResetWarning,0811.9,5.00,000.00,019.0,018.7,000.0,027.3,020.0,6.8,0000.0,0001.21,0004.89,0000.51
2024-01-10 22:21:00,SystemResetWarning,0811.8,4.99,000.00,019.0,018.4,000.0,027.3,020.0,6.8,0000.0,0001.20,0005.82,0000.51
2024-01-10 22:22:00,SystemResetWarning,0811.7,5.01,000.00,019.0,018.2,000.0,027.3,020.0,6.7,0000.0,0001.18,0006.76,0000.51
2024-01-10 22:23:00,SystemResetWarning,0811.7,5.01,000.00,018.9,018.0,000.0,027.3,020.0,6.7,0000.0,0001.13,0006.66,0000.51
2024-01-10 22:24:00,SystemResetWarning,0811.8,5.00,000.00,018.9,017.8,000.0,027.3,020.0,6.8,0000.0,0001.07,0005.57,0000.51
2024-01-10 22:25:00,SystemResetWarning,0811.7,4.99,000.00,018.8,017.7,000.0,027.3,020.0,6.8,0000.0,0001.02,0005.37,0000.51
2024-01-10 22:26:00,SystemResetWarning,0811.7,5.00,000.00,018.8,017.6,000.0,027.3,020.1,6.8,0000.0,0000.98,0005.27,0000.51
2024-01-10 22:27:00,SystemResetWarning,0811.8,5.01,000.00,018.9,018.2,000.0,027.3,020.5,6.8,0000.0,0000.93,0005.52,0000.50
2024-01-10 22:28:00,SystemResetWarning,0811.9,4.99,000.00,019.0,019.0,000.0,027.3,020.9,6.8,0000.0,0000.88,0005.47,0000.49
2024-01-10 22:29:00,SystemResetWarning,0811.8,4.99,000.00,019.1,019.1,000.0,027.3,020.5,6.7,0000.0,0000.88,0005.93,0000.50
2024-01-10 22:30:00,SystemResetWarning,0811.7,5.00,000.00,019.0,018.9,000.0,027.3,020.2,6.7,0000.0,0000.83,0005.77,0000.50
2024-01-10 22:31:00,SystemResetWarning,0811.8,5.01,000.00,019.0,018.6,000.0,027.3,020.1,6.7,0000.0,0000.78,0006.29,0000.50
2024-01-10 22:32:00,SystemResetWarning,0811.8,5.00,000.00,018.9,018.3,000.0,027.3,020.0,6.8,0000.0,0000.79,0006.20,0000.50
2024-01-10 22:33:00,SystemResetWarning,0811.9,5.01,000.00,018.8,018.1,000.0,027.3,020.0,6.8,0000.0,0000.75,0005.12,0000.49
2024-01-10 22:34:00,SystemResetWarning,0811.8,5.00,000.00,018.8,017.9,000.0,027.3,020.0,6.8,0000.0,0000.75,0004.98,0000.49
2024-01-10 22:35:00,SystemResetWarning,0811.8,5.00,000.00,018.8,017.8,000.0,027.3,020.0,6.8,0000.0,0000.76,0005.03,0000.49
2024-01-10 22:36:00,SystemResetWarning,0811.8,5.00,000.00,018.8,017.6,000.0,027.3,020.0,6.9,0000.0,0000.75,0004.98,0000.50
2024-01-10 22:37:00,SystemResetWarning,0811.8,5.01,000.00,018.8,017.7,000.0,027.3,020.2,6.9,0000.0,0000.78,0005.01,0000.50
2024-01-10 22:38:00,SystemResetWarning,0811.8,5.01,000.00,018.9,018.4,000.0,027.3,020.6,6.9,0000.0,0000.80,0004.79,0000.50
2024-01-10 22:39:00,SystemResetWarning,0811.8,5.00,000.00,019.1,019.1,000.0,027.3,020.9,6.8,0000.0,0000.82,0004.71,0000.50
2024-01-10 22:40:00,SystemResetWarning,0811.8,4.98,000.00,019.1,019.0,000.0,027.3,020.4,6.8,0000.0,0000.80,0003.51,0000.50
2024-01-10 22:41:00,SystemResetWarning,0811.8,5.00,000.00,019.0,018.7,000.0,027.2,020.1,6.9,0000.0,0000.82,0003.39,0000.50
2024-01-10 22:42:00,SystemResetWarning,0811.8,5.00,000.00,019.0,018.4,000.0,027.2,020.0,7.0,0000.0,0000.85,0003.45,0000.50
2024-01-10 22:43:00,SystemResetWarning,0811.6,5.00,000.00,018.9,018.1,000.0,027.3,020.0,7.0,0000.0,0000.84,0002.75,0000.50
2024-01-10 22:44:00,SystemResetWarning,0811.8,5.00,000.00,018.9,017.9,000.0,027.3,020.0,7.0,0000.0,0000.86,0002.71,0000.49
2024-01-10 22:45:00,SystemResetWarning,0811.8,5.01,000.00,018.8,017.7,000.0,027.3,020.0,7.0,0000.0,0000.86,0003.47,0000.48
2024-01-10 22:46:00,SystemResetWarning,0811.7,5.00,000.00,018.8,017.6,000.0,027.3,020.0,7.0,0000.0,0000.86,0004.75,0000.48
2024-01-10 22:47:00,SystemResetWarning,0811.8,5.01,000.00,018.8,017.9,000.0,027.3,020.3,7.0,0000.0,0000.89,0004.87,0000.48
2024-01-10 22:48:00,SystemResetWarning,0811.8,5.00,000.00,018.9,018.8,000.0,027.2,020.7,7.1,0000.0,0000.92,0004.93,0000.48
2024-01-10 22:49:00,SystemResetWarning,0811.9,4.99,000.00,019.1,019.1,000.0,027.2,020.6,7.0,0000.0,0000.95,0004.89,0000.48
2024-01-10 22:50:00,SystemResetWarning,0811.8,4.99,000.00,019.0,018.8,000.0,027.2,020.1,7.1,0000.0,0000.96,0004.86,0000.48
2024-01-10 22:51:00,SystemResetWarning,0811.9,5.00,000.00,019.0,018.6,000.0,027.2,020.0,7.1,0000.0,0000.98,0004.91,0000.48
2024-01-10 22:52:00,SystemResetWarning,0811.9,5.00,000.00,018.9,018.3,000.0,027.3,020.0,7.2,0000.0,0000.97,0004.64,0000.48
2024-01-10 22:53:00,SystemResetWarning,0811.8,5.00,000.00,018.9,018.1,000.0,027.3,020.0,7.2,0000.0,0000.96,0004.05,0000.47
2024-01-10 22:54:00,SystemResetWarning,0811.9,5.01,000.00,018.9,018.0,000.0,027.3,020.0,7.2,0000.0,0000.95,0003.93,0000.47
2024-01-10 22:55:00,SystemResetWarning,0812.0,5.01,000.00,018.9,017.8,000.0,027.3,020.0,7.2,0000.0,0000.94,0004.04,0000.47
2024-01-10 22:56:00,SystemResetWarning,0812.1,5.01,000.00,018.8,017.7,000.0,027.3,020.0,7.2,0000.0,0000.94,0003.50,0000.48
2024-01-10 22:57:00,SystemResetWarning,0812.0,5.00,000.00,018.8,017.9,000.0,027.3,020.3,7.3,0000.0,0000.88,0001.94,0000.46
2024-01-10 22:58:00,SystemResetWarning,0812.1,5.00,000.00,019.0,018.7,000.0,027.3,020.7,7.3,0000.0,0000.83,0002.02,0000.45
2024-01-10 22:59:00,SystemResetWarning,0812.1,4.99,000.00,019.1,019.1,000.0,027.3,020.8,7.2,0000.0,0000.81,0002.81,0000.45
